[Date Prev][Date Next][Thread Prev][Thread Next] - [Date Index][Thread Index][Author Index]
2 Line ISS Keps 4-8
- Subject: [sarex] 2 Line ISS Keps 4-8
- From: "Dave Larsen PhD" <doc@xxxxxxxxxxx>
- Date: Fri, 7 Apr 2006 19:54:39 -0700
ISS
1 25544U 98067A 06097.65724240 .00020799 00000-0 14035-3 0 6879
2 25544 051.6411 190.4955 0009359 084.5807 051.1454 15.75016900422047
----
Via the sarex mailing list at AMSAT.ORG courtesy of AMSAT-NA.
To unsubscribe, send "unsubscribe sarex" to Majordomo@amsat.org
AMSAT Home